Location: Helds Island Access
(38.5526°N, 91.5997°W)
Time: 18:57:09
(UTC-05:00)

Daily predictions for brighter satellites

Satellite Brightness Start Highest point End
(mag) Time Altitude Azimuth Time Altitude Azimuth Time Altitude Azimuth
Cosmos 1844 3.8 19:37:18 10° S 19:42:56 62° ESE 19:48:40 10° NNE
Cosmos 192 4.3 19:39:05 10° NNW 19:44:01 76° ENE 19:48:55 10° SSE
METEOR-M 4.4 19:47:56 10° S 19:53:16 79° WSW 19:58:38 10° NNW
Cosmos 1821 Rocket 4.0 19:49:31 10° S 19:55:51 69° E 20:02:10 10° NNE
Cosmos 1812 Rocket 3.6 19:52:52 10° S 19:57:12 57° E 20:01:31 10° NNE
Cosmos 2344 3.6 19:52:35 10° SSW 20:00:13 73° ESE 20:08:31 10° NE
Spot 2 Rocket 3.9 19:57:12 10° SE 20:02:01 44° ENE 20:06:51 10° N
CZ-2D R/B 4.2 19:58:58 10° SE 20:02:17 28° ENE 20:05:37 10° NNE
USA 215 3.9 19:56:45 10° ENE 20:02:32 33° SE 20:08:15 10° S
Cosmos 1535 Rocket 4.5 19:56:57 10° S 20:03:11 78° E 20:09:31 10° N
Resurs 01 Rocket 1.9 20:00:04 10° SE 20:04:16 45° ENE 20:08:29 10° N
Cosmos 2150 Rocket 4.1 20:02:26 10° SSW 20:07:34 80° WNW 20:12:44 10° NNE
Cosmos 1805 4.2 20:04:20 10° SSE 20:07:34 26° E 20:10:51 10° NNE
Meteor 1-22 Rocket 4.3 20:06:23 10° S 20:12:07 75° E 20:18:08 10° NNE
Cosmos 1437 Rocket 3.2 20:08:23 10° SSW 20:12:21 69° W 20:16:25 10° N
Delta 2 Rocket 3.9 20:08:03 10° W 20:12:45 53° S 20:16:05 15° ESE
Cosmos 1605 Rocket 4.2 20:07:52 10° SSE 20:13:51 51° E 20:19:58 10° NNE
ALOS 2.3 20:10:08 10° SSE 20:14:48 86° WSW 20:19:30 10° NNW
Cosmos 990 Rocket 4.0 20:09:54 10° SSW 20:15:09 89° ESE 20:20:26 10° NNE
SJ-6B 3.4 20:12:46 10° S 20:16:26 56° W 20:20:08 10° NNW
Envisat 4.1 20:17:16 15° ESE 20:20:07 24° ENE 20:24:08 10° NNE
Helios 1B rocket 3.1 20:18:41 10° NNE 20:22:25 32° E 20:26:07 10° SSE
In-Cosmos 22 4.2 20:17:15 10° N 20:22:28 54° ENE 20:27:36 10° SSE
SAR-Lupe-4 4.3 20:20:27 17° SE 20:22:38 32° ENE 20:25:51 10° N
CZ-4B DEB 4.3 20:22:45 18° ENE 20:22:45 18° ENE 20:24:50 10° NNE
Cosmos 1844 Rocket 3.9 20:17:44 10° SW 20:23:09 46° WNW 20:28:33 10° N
Cosmos 1125 Rocket 4.0 20:21:26 10° SSE 20:26:07 36° E 20:30:51 10° NE
Helios 1A 3.6 20:23:52 15° SE 20:26:47 36° ENE 20:30:39 10° N
Cosmos 2123 Rocket 4.0 20:22:14 10° N 20:28:36 77° E 20:34:52 10° S
Cosmos 1378 4.0 20:25:50 10° NNW 20:29:30 52° W 20:33:07 10° S
Lacrosse 4 Rocket 3.5 20:26:59 10° WSW 20:30:30 28° WNW 20:34:03 10° N
Cosmos-2242 4.2 20:33:21 22° E 20:33:21 22° E 20:36:19 10° NE
Cosmos 1833 Rocket 3.7 20:30:10 10° N 20:34:54 27° ENE 20:36:54 22° E
Cosmos 2278 Rocket 2.2 20:29:21 10° SSW 20:35:01 88° WNW 20:40:44 10° NNE
Geosat 3.9 20:30:41 10° NNE 20:35:44 82° ESE 20:40:45 10° SSW
Cosmos 1758 3.4 20:34:24 10° S 20:38:15 53° E 20:42:09 10° NNE
Spot 1 4.4 20:35:29 15° SSE 20:39:08 55° ENE 20:43:52 10° N
FENGYUN 3A 4.4 20:34:32 10° S 20:39:50 55° W 20:45:08 10° NNW
Lacrosse 5 2.3 20:34:51 10° SW 20:39:53 65° NW 20:44:56 10° NE
SAR-Lupe-1 4.3 20:40:50 31° SE 20:42:08 48° ENE 20:45:36 10° N
ERS-1 Rocket 4.2 20:43:28 22° ENE 20:43:55 22° ENE 20:47:44 10° NNE
H-2A R/B 3.5 20:41:15 10° S 20:45:02 55° W 20:48:54 10° NNW
SL-27 R/B 3.3 20:43:50 10° NNW 20:47:19 52° WSW 20:50:45 11° S
Cosmos 1953 2.2 20:43:44 10° S 20:47:46 64° E 20:51:48 10° NNE
Cosmos 1939 Rocket 3.7 20:48:08 32° E 20:48:23 32° ENE 20:52:06 10° N
Cosmos 2297 3.8 20:43:01 10° S 20:48:32 54° ESE 20:54:07 10° NNE
Meteor 1-4 Rocket 2.3 20:45:56 10° S 20:49:23 67° E 20:52:51 10° NNE
Resurs 1-3 4.0 20:45:08 10° S 20:49:29 65° W 20:53:51 10° NNW
Meteor 1-29 2.9 20:49:07 10° NNE 20:52:32 58° E 20:53:40 37° SSE
H-2A R/B 4.1 20:47:48 10° SW 20:53:20 49° SSE 21:09:35 23° E
H-2A R/B 4.1 20:47:48 10° SW 20:53:20 49° SSE 21:09:36 23° E
H-2A R/B 4.1 20:47:48 10° SW 20:53:20 49° SSE 21:09:37 23° E
H-2A R/B 4.1 20:47:48 10° SW 20:53:20 49° SSE 21:09:34 23° E
H-2A R/B 4.1 20:47:48 10° SW 20:53:20 49° SSE 21:09:32 23° E
H-2A R/B 4.1 20:47:48 10° SW 20:53:21 49° SSE 21:09:38 23° E
Cosmos 1544 3.1 20:49:50 10° S 20:53:27 77° W 20:57:07 10° N
Cosmos 1818 3.8 20:48:08 10° NNW 20:53:28 52° NE 20:55:28 34° ESE
SeaSat 1 4.0 20:49:10 10° S 20:53:37 35° WSW 20:58:07 10° NW
ATLAS 5 CENTAUR R/B 2.8 20:50:48 10° S 20:53:19 26° SSE 20:53:19 26° SSE
COSMOS 2487 3.8 20:51:47 10° N 20:54:10 26° NE 20:54:10 26° NE
Cosmos 1269 Rocket 4.0 21:00:38 10° N 21:05:52 58° ENE 21:07:14 44° ESE
Cosmos 2082 Rocket 2.3 21:01:04 10° NNW 21:06:39 53° ENE 21:08:03 43° ESE
Cosmos 1447 Rocket 4.4 21:01:30 10° N 21:07:40 86° E 21:13:05 14° S
CZ-3B DEB 4.0 20:59:41 10° WSW 21:09:39 41° NW 21:14:28 10° NNE
Cosmos 1408 Rocket 3.5 21:05:21 10° N 21:09:48 66° E 21:10:23 59° SE
Lacrosse 5 rocket 3.2 21:08:37 10° N 21:10:52 16° NNE 21:10:52 16° NNE
Cosmos 1459 Rocket 4.0 21:05:20 11° S 21:11:18 58° E 21:17:22 10° NNE
Cosmos 2098 Rocket 4.4 21:04:20 10° S 21:11:20 84° W 21:19:01 10° N
Tiangong 1 2.4 21:09:36 10° WNW 21:11:36 33° WSW 21:11:36 33° WSW
Cosmos 1271 Rocket 4.2 21:14:48 28° NNE 21:14:48 28° NNE 21:16:50 10° NNE
Cosmos 2173 Rocket 3.9 21:10:13 19° SSE 21:14:36 60° E 21:20:45 10° NNE
RESURS DK-1 4.2 21:15:37 10° NW 21:19:11 28° WSW 21:21:49 15° SSW
USA 186 4.3 21:21:38 15° WNW 21:21:38 15° WNW 21:22:20 10° NW
SJ-11-01 4.2 21:24:23 58° S 21:25:19 85° WSW 21:30:05 10° NNW
Cosmos 1867 3.6 21:21:46 10° SW 21:27:13 78° WNW 21:32:43 10° NNE
Cosmos 372 Rocket 4.1 21:27:54 10° SSW 21:32:59 71° WNW 21:38:08 10° NNE
GP-B 4.2 21:35:49 21° SSW 21:38:23 42° W 21:42:36 10° NNW
Cosmos 1674 3.8 21:34:58 10° NNW 21:37:53 43° NW 21:37:53 43° NW
Resurs 01 Rocket 4.5 21:38:27 10° SW 21:40:57 15° W 21:43:28 10° WNW
USA 215 3.5 21:39:16 10° NE 21:45:44 65° NW 21:52:11 10° WSW
Cosmos 2016 Rocket 3.8 21:45:36 75° SE 21:45:56 78° E 21:52:08 10° N
Cosmos 158 Rocket 4.0 21:41:33 10° NNW 21:46:40 71° WSW 21:46:43 71° WSW
H-2A R/B 3.9 21:55:19 20° NNE 21:55:19 20° NNE 21:57:16 10° N
Meteor 2-17 Rocket 4.3 21:54:51 88° SSE 21:54:56 89° E 22:01:07 10° N
Envisat 4.2 21:57:27 31° SW 21:58:53 37° W 22:03:36 10° NNW
CZ-3 Stage 3 3.4 21:39:42 10° W 22:03:09 51° SSW 22:03:52 50° S
BREEZE-M DEB (TANK) 3.9 22:00:19 10° WSW 22:04:26 74° NNW 22:20:32 10° ENE
USA 267 3.7 22:17:25 49° NNE 22:17:25 49° NNE 22:23:15 10° NW
Cosmos 1833 Rocket 3.7 22:13:42 10° NW 22:18:39 41° W 22:18:39 41° W
ERS-1 Rocket 4.3 22:23:28 36° WNW 22:23:28 36° WNW 22:27:10 10° NNW
Lacrosse 5 4.5 22:20:33 10° WNW 22:23:45 16° NNW 22:26:34 11° N
SPOT 5 4.4 22:26:24 36° NNW 22:26:24 36° NNW 22:29:32 10° NNW
Cosmos 2082 Rocket 4.3 22:46:17 10° NW 22:49:57 20° W 22:49:57 20° W
